DW7875 Weather Reports


Display with metric or nautical units.
time (UTC)temp
F
wind
direction
speed
MPH
gust
MPH
rain 1hr
in
rain 24hr
in
rain mn
in
humidity
%
barometer
mb
20260902013014 81 200 0.0 1.0 0.00 0.00 0.00 69 1013.7
20260902011513 82 200 0.0 0.0 0.00 0.00 0.00 69 1013.8
20260902010013 82 200 0.0 1.0 0.00 0.00 0.00 68 1013.6
20260902004513 83 200 0.0 2.0 0.00 0.00 0.00 67 1013.5
20260902003012 83 200 0.0 0.0 0.00 0.00 0.00 67 1013.0
20260902001511 84 200 0.0 2.0 0.00 0.00 0.00 65 1012.7
20260902000010 85 200 0.0 0.0 0.00 0.00 0.00 64 1012.6
20260901234509 85 200 0.0 0.0 0.00 0.00 0.00 63 1012.7
20260901233011 86 200 0.0 0.0 0.00 0.00 0.00 62 1012.8
20260901231511 86 200 0.0 2.0 0.00 0.00 0.00 61 1012.9
20260901230006 87 229 0.0 2.0 0.00 0.00 0.00 62 1013.0
20260901224509 88 229 0.0 2.0 0.00 0.00 0.00 61 1013.0
20260901223005 88 203 0.0 2.0 0.00 0.00 0.00 60 1013.0
20260901221509 89 205 0.0 3.0 0.00 0.00 0.00 58 1013.1
20260901220003 89 251 1.0 4.0 0.00 0.00 0.00 58 1013.1
20260901214502 89 98 0.0 3.0 0.00 0.00 0.00 61 1013.2
20260901213109 90 165 0.0 2.0 0.00 0.00 0.00 63 1013.3
20260901211600 90 166 0.0 1.0 0.00 0.00 0.00 65 1013.3
20260901210108 91 166 0.0 3.0 0.00 0.00 0.00 63 1013.4
20260901204611 91 167 0.0 2.0 0.00 0.00 0.00 63 1013.6
20260901203101 92 167 0.0 2.0 0.00 0.00 0.00 62 1013.5
20260901201558 92 179 0.0 2.0 0.00 0.00 0.00 62 1013.7
20260901200115 91 184 0.0 2.0 0.00 0.00 0.00 63 1013.9
20260901194606 91 184 1.0 2.0 0.00 0.00 0.00 63 1014.0
20260901193053 92 184 0.0 2.0 0.00 0.00 0.00 60 1014.3
20260901191624 94 185 1.0 4.0 0.00 0.00 0.00 56 1014.5
20260901190058 93 212 1.0 3.0 0.00 0.00 0.00 54 1014.3
20260901184547 94 228 1.0 5.0 0.00 0.00 0.00 53 1014.4
20260901183052 92 220 1.0 5.0 0.00 0.00 0.00 55 1014.5
20260901181551 92 108 1.0 3.0 0.00 0.00 0.00 54 1014.6
20260901180043 91 108 0.0 1.0 0.00 0.00 0.00 54 1014.5
20260901174544 93 177 0.0 5.0 0.00 0.00 0.00 51 1014.6
20260901173041 93 141 0.0 3.0 0.00 0.00 0.00 52 1014.6
20260901171541 93 281 1.0 4.0 0.00 0.00 0.00 52 1014.9
20260901170051 93 305 0.0 3.0 0.00 0.00 0.00 52 1014.8
20260901164539 93 304 1.0 3.0 0.00 0.00 0.00 55 1015.0
20260901163042 92 266 2.0 4.0 0.00 0.00 0.00 57 1015.2
20260901161536 92 269 1.0 3.0 0.00 0.00 0.00 64 1015.4
20260901160032 91 5 1.0 4.0 0.00 0.00 0.00 64 1015.5
20260901154528 91 74 0.0 3.0 0.00 0.00 0.00 65 1015.7
20260901153027 90 253 1.0 5.0 0.00 0.00 0.00 68 1015.7
20260901151534 88 1 0.0 3.0 0.00 0.00 0.00 70 1015.9
20260901150033 88 347 1.0 4.0 0.00 0.00 0.00 71 1016.1
20260901144514 87 344 0.0 3.0 0.00 0.00 0.00 73 1016.0
20260901143016 86 300 0.0 4.0 0.00 0.00 0.00 72 1015.9
20260901141509 85 296 0.0 3.0 0.00 0.00 0.00 75 1015.7
20260901140005 83 290 1.0 5.0 0.00 0.00 0.00 77 1015.8
20260901134500 82 13 1.0 4.0 0.00 0.00 0.00 78 1015.9
20260901133101 81 303 1.0 4.0 0.00 0.00 0.00 79 1016.1
20260901131558 80 316 0.0 4.0 0.00 0.00 0.00 80 1016.3
20260901130052 79 20 0.0 2.0 0.00 0.00 0.00 82 1016.3
20260901124553 78 24 0.0 2.0 0.00 0.00 0.00 86 1016.3
20260901123047 77 121 0.0 1.0 0.00 0.00 0.00 87 1016.2
20260901121544 76 121 0.0 2.0 0.00 0.00 0.00 88 1016.4
20260901120043 75 121 0.0 1.0 0.00 0.00 0.00 88 1016.3
20260901114542 75 120 0.0 3.0 0.00 0.00 0.00 88 1016.3
20260901113040 74 123 0.0 1.0 0.00 0.00 0.00 88 1016.3
20260901111541 74 123 0.0 2.0 0.00 0.00 0.00 88 1016.2
20260901110039 74 122 0.0 1.0 0.00 0.00 0.00 88 1016.2
20260901104540 73 123 0.0 1.0 0.00 0.00 0.00 87 1016.1
20260901103038 73 123 0.0 2.0 0.00 0.00 0.00 87 1015.8
20260901101556 73 123 0.0 1.0 0.00 0.00 0.00 87 1015.6
20260901100046 73 123 0.0 1.0 0.00 0.00 0.00 87 1015.6
20260901094541 74 123 0.0 1.0 0.00 0.00 0.00 87 1015.8
20260901093034 73 123 0.0 1.0 0.00 0.00 0.00 87 1016.0
20260901091548 73 123 0.0 2.0 0.00 0.00 0.00 87 1016.0
20260901090036 74 122 0.0 0.0 0.00 0.00 0.00 87 1015.9
20260901084539 74 122 0.0 1.0 0.00 0.01 0.00 87 1016.0
20260901083039 74 122 0.0 1.0 0.00 0.01 0.00 87 1015.8
20260901081529 74 122 0.0 2.0 0.00 0.01 0.00 87 1015.8
20260901080108 74 177 0.0 2.0 0.00 0.01 0.00 87 1016.0
20260901074525 74 177 0.0 1.0 0.00 0.01 0.00 87 1016.2
20260901073024 75 177 0.0 1.0 0.00 0.01 0.00 87 1016.3
20260901071523 75 177 0.0 0.0 0.00 0.01 0.00 87 1016.3
20260901070029 75 177 0.0 0.0 0.00 0.01 0.00 87 1016.4
20260901064521 75 177 0.0 0.0 0.00 0.01 0.00 87 1016.5
20260901063018 75 177 0.0 0.0 0.00 0.01 0.00 87 1016.4
20260901061518 76 177 0.0 0.0 0.00 0.01 0.00 87 1016.5
20260901060016 76 177 0.0 1.0 0.00 0.01 0.00 87 1016.6
20260901054514 76 177 0.0 1.0 0.00 0.01 0.00 87 1016.8
20260901053011 76 177 0.0 1.0 0.00 0.01 0.00 87 1017.0
20260901051513 76 177 0.0 1.0 0.00 0.01 0.00 87 1017.0
20260901050008 76 177 0.0 1.0 0.00 0.01 0.00 87 1017.2
20260901044507 76 177 0.0 0.0 0.00 0.01 0.00 86 1017.4
20260901043013 76 177 0.0 0.0 0.00 0.01 0.00 86 1017.4
20260901041505 76 177 0.0 0.0 0.00 0.01 0.00 85 1017.4
20260901040005 76 177 0.0 0.0 0.00 0.01 0.00 85 1017.3
20260901034503 77 177 0.0 0.0 0.00 0.01 0.01 84 1017.4
20260901033002 77 177 0.0 0.0 0.00 0.01 0.01 84 1017.3
20260901031502 77 177 0.0 0.0 0.00 0.01 0.01 84 1017.3
20260901030001 78 177 0.0 0.0 0.00 0.01 0.01 83 1017.1
20260901024500 78 177 0.0 0.0 0.00 0.01 0.01 83 1017.3
20260901023101 79 177 0.0 0.0 0.00 0.01 0.01 82 1017.3
20260901021612 79 177 0.0 2.0 0.00 0.01 0.01 83 1017.4
20260901014559 79 140 0.0 2.0 0.00 0.02 0.01 83 1017.5
20260901014501 79 140 0.0 2.0 0.00 0.02 0.01 83 1017.5